Date String (YYYY-MM-DD hh:mm:ss) UTC,Instrument flags,absolute air pressure of the measurement (hPa),sample flow rate (lpm),inlet stack bypass flow (lpm),air temperature of the measurement (°C),ambient temperature measured by the external sensor (°C),aerosol sample conditioner tube jacket temperature (°C),OPC LED temperature (°C),internal box temperature (°C),relative humidity of the measurement (%),span deviation,mass concentration of particles derived from Lorenz-Mie calculation of OPC scattering (μg/m³),mass concentration of particles derived from Lorenz-Mie calculation of OPC scattering (μg/m³),mass concentration of particles derived from Lorenz-Mie calculation of OPC scattering (μg/m³)
DateTimeUTC,F1_M11,P_M11,Q1_M11,Q2_M11,T1_M11,T2_M11,T3_M11,T4_M11,T5_M11,U1_M11,ZSPAN_M11,X0_M11,X2_M11,X1_M11
2024-04-03 08:00:00,SystemResetWarning,0831.1,5.00,000.00,022.9,022.1,000.0,031.5,024.7,14.0,0000.0,0003.53,0001.99,0001.55
2024-04-03 08:01:00,SystemResetWarning,0831.1,4.99,000.00,022.9,022.1,000.0,031.5,024.7,14.0,0000.0,0003.36,0001.95,0001.54
2024-04-03 08:02:00,SystemResetWarning,0831.1,4.99,000.00,022.9,022.0,000.0,031.5,024.7,14.0,0000.0,0003.07,0001.95,0001.54
2024-04-03 08:03:00,SystemResetWarning,0831.0,5.00,000.00,022.9,022.0,000.0,031.4,024.7,14.0,0000.0,0002.98,0001.95,0001.54
2024-04-03 08:04:00,SystemResetWarning,0831.0,5.01,000.00,022.8,022.0,000.0,031.4,024.7,14.1,0000.0,0002.98,0001.96,0001.54
2024-04-03 08:05:00,SystemResetWarning,0831.0,5.00,000.00,022.8,022.0,000.0,031.4,024.6,14.1,0000.0,0003.09,0001.98,0001.53
2024-04-03 08:06:00,SystemResetWarning,0831.0,4.98,000.00,022.8,022.0,000.0,031.4,024.6,14.2,0000.0,0003.13,0002.00,0001.54
2024-04-03 08:07:00,SystemResetWarning,0831.0,5.01,000.00,022.8,022.0,000.0,031.4,024.6,14.7,0000.0,0003.23,0002.05,0001.54
2024-04-03 08:08:00,SystemResetWarning,0831.1,5.01,000.00,022.8,022.0,000.0,031.4,024.6,14.5,0000.0,0003.20,0002.04,0001.53
2024-04-03 08:09:00,SystemResetWarning,0831.0,5.00,000.00,022.8,022.0,000.0,031.4,024.6,14.4,0000.0,0003.24,0002.06,0001.55
2024-04-03 08:10:00,SystemResetWarning,0831.0,4.99,000.00,022.8,022.0,000.0,031.4,024.6,14.3,0000.0,0003.60,0002.10,0001.55
2024-04-03 08:11:00,SystemResetWarning,0831.0,4.99,000.00,022.8,022.0,000.0,031.4,024.6,14.5,0000.0,0003.82,0002.14,0001.54
2024-04-03 08:12:00,SystemResetWarning,0831.1,5.00,000.00,022.8,022.0,000.0,031.4,024.6,14.8,0000.0,0004.00,0002.21,0001.55
2024-04-03 08:13:00,SystemResetWarning,0831.1,5.01,000.00,022.8,022.0,000.0,031.4,024.6,14.6,0000.0,0004.06,0002.20,0001.54
2024-04-03 08:14:00,SystemResetWarning,0831.1,5.01,000.00,022.8,022.0,000.0,031.4,024.6,14.7,0000.0,0004.12,0002.22,0001.55
2024-04-03 08:15:00,SystemResetWarning,0831.1,5.00,000.00,022.8,021.9,000.0,031.4,024.6,14.5,0000.0,0004.27,0002.27,0001.56
2024-04-03 08:16:00,SystemResetWarning,0831.1,4.98,000.00,022.8,021.9,000.0,031.3,024.6,14.6,0000.0,0004.32,0002.35,0001.57
2024-04-03 08:17:00,SystemResetWarning,0831.0,5.00,000.00,022.7,021.9,000.0,031.3,024.6,14.6,0000.0,0004.34,0002.35,0001.58
2024-04-03 08:18:00,SystemResetWarning,0831.0,5.02,000.00,022.7,021.9,000.0,031.3,024.6,14.7,0000.0,0004.20,0002.29,0001.59
2024-04-03 08:19:00,SystemResetWarning,0831.0,5.00,000.00,022.7,021.9,000.0,031.3,024.6,14.9,0000.0,0004.21,0002.27,0001.60
2024-04-03 08:20:00,SystemResetWarning,0830.9,4.99,000.00,022.7,021.9,000.0,031.3,024.6,15.1,0000.0,0004.22,0002.26,0001.59
2024-04-03 08:21:00,SystemResetWarning,0830.9,5.01,000.00,022.7,021.9,000.0,031.3,024.5,15.2,0000.0,0003.90,0002.21,0001.59
2024-04-03 08:22:00,SystemResetWarning,0830.9,5.01,000.00,022.7,021.9,000.0,031.3,024.5,15.1,0000.0,0003.72,0002.18,0001.60
2024-04-03 08:23:00,SystemResetWarning,0830.9,5.01,000.00,022.7,021.9,000.0,031.3,024.5,15.2,0000.0,0003.81,0002.21,0001.61
2024-04-03 08:24:00,SystemResetWarning,0830.9,4.99,000.00,022.7,021.9,000.0,031.3,024.5,14.9,0000.0,0003.89,0002.24,0001.63
2024-04-03 08:25:00,SystemResetWarning,0830.9,4.99,000.00,022.7,021.9,000.0,031.3,024.5,14.9,0000.0,0003.99,0002.27,0001.63
2024-04-03 08:26:00,SystemResetWarning,0830.9,5.00,000.00,022.7,021.9,000.0,031.3,024.5,14.8,0000.0,0003.94,0002.26,0001.63
2024-04-03 08:27:00,SystemResetWarning,0830.9,5.00,000.00,022.7,021.9,000.0,031.3,024.5,15.1,0000.0,0003.73,0002.19,0001.62
2024-04-03 08:28:00,SystemResetWarning,0830.9,5.01,000.00,022.7,021.9,000.0,031.3,024.5,15.0,0000.0,0003.72,0002.19,0001.62
2024-04-03 08:29:00,SystemResetWarning,0830.9,5.01,000.00,022.7,021.8,000.0,031.2,024.4,14.7,0000.0,0003.85,0002.23,0001.62
2024-04-03 08:30:00,SystemResetWarning,0830.9,4.99,000.00,022.6,021.8,000.0,031.2,024.4,14.8,0000.0,0003.75,0002.22,0001.61
2024-04-03 08:31:00,SystemResetWarning,0830.9,5.00,000.00,022.6,021.8,000.0,031.2,024.4,14.7,0000.0,0003.59,0002.18,0001.61
2024-04-03 08:32:00,SystemResetWarning,0830.9,5.00,000.00,022.6,021.8,000.0,031.2,024.4,14.7,0000.0,0003.54,0002.17,0001.61
2024-04-03 08:33:00,SystemResetWarning,0830.9,5.01,000.00,022.6,021.8,000.0,031.2,024.4,14.7,0000.0,0003.47,0002.15,0001.60
2024-04-03 08:34:00,SystemResetWarning,0830.9,5.00,000.00,022.6,021.8,000.0,031.2,024.4,14.8,0000.0,0003.29,0002.09,0001.58
2024-04-03 08:35:00,SystemResetWarning,0830.9,5.01,000.00,022.6,021.8,000.0,031.2,024.4,14.8,0000.0,0003.20,0002.07,0001.58
2024-04-03 08:36:00,SystemResetWarning,0830.9,5.00,000.00,022.6,021.8,000.0,031.2,024.4,14.9,0000.0,0003.09,0002.06,0001.58
2024-04-03 08:37:00,SystemResetWarning,0830.8,4.99,000.00,022.6,021.8,000.0,031.2,024.4,14.8,0000.0,0002.84,0001.99,0001.57
2024-04-03 08:38:00,SystemResetWarning,0830.8,4.99,000.00,022.6,021.8,000.0,031.2,024.4,14.7,0000.0,0002.94,0002.02,0001.58
2024-04-03 08:39:00,SystemResetWarning,0830.8,5.00,000.00,022.6,021.7,000.0,031.2,024.4,14.9,0000.0,0003.02,0002.04,0001.58
2024-04-03 08:40:00,SystemResetWarning,0830.8,5.01,000.00,022.6,021.7,000.0,031.2,024.4,15.3,0000.0,0003.10,0002.05,0001.58
2024-04-03 08:41:00,SystemResetWarning,0830.8,5.01,000.00,022.6,021.7,000.0,031.2,024.3,15.3,0000.0,0003.11,0002.05,0001.58
2024-04-03 08:42:00,SystemResetWarning,0830.8,5.00,000.00,022.5,021.7,000.0,031.2,024.3,15.3,0000.0,0003.17,0002.07,0001.58
2024-04-03 08:43:00,SystemResetWarning,0830.8,5.00,000.00,022.5,021.7,000.0,031.1,024.3,15.4,0000.0,0003.23,0002.09,0001.59
2024-04-03 08:44:00,SystemResetWarning,0830.7,4.99,000.00,022.5,021.7,000.0,031.1,024.3,15.4,0000.0,0003.23,0002.09,0001.60
2024-04-03 08:45:00,SystemResetWarning,0830.7,5.00,000.00,022.5,021.7,000.0,031.1,024.3,15.0,0000.0,0003.31,0002.13,0001.61
2024-04-03 08:46:00,SystemResetWarning,0830.7,5.00,000.00,022.5,021.7,000.0,031.1,024.3,15.1,0000.0,0003.40,0002.18,0001.62
2024-04-03 08:47:00,SystemResetWarning,0830.7,5.01,000.00,022.5,021.7,000.0,031.1,024.3,15.2,0000.0,0003.48,0002.20,0001.61
2024-04-03 08:48:00,SystemResetWarning,0830.7,5.01,000.00,022.5,021.7,000.0,031.1,024.3,15.2,0000.0,0003.57,0002.23,0001.62
2024-04-03 08:49:00,SystemResetWarning,0830.7,5.00,000.00,022.5,021.7,000.0,031.1,024.3,15.2,0000.0,0003.51,0002.21,0001.61
2024-04-03 08:50:00,SystemResetWarning,0830.7,5.01,000.00,022.5,021.7,000.0,031.1,024.3,15.2,0000.0,0004.26,0002.17,0001.61
2024-04-03 08:51:00,SystemResetWarning,0830.7,5.00,000.00,022.5,021.7,000.0,031.1,024.3,15.1,0000.0,0004.88,0002.16,0001.61
2024-04-03 08:52:00,SystemResetWarning,0830.7,5.00,000.00,022.5,021.6,000.0,031.0,024.3,14.8,0000.0,0004.93,0002.21,0001.62
2024-04-03 08:53:00,SystemResetWarning,0830.7,5.00,000.00,022.4,021.6,000.0,031.0,024.3,14.9,0000.0,0005.03,0002.26,0001.63
2024-04-03 08:54:00,SystemResetWarning,0830.7,5.00,000.00,022.4,021.6,000.0,031.0,024.3,15.0,0000.0,0005.05,0002.27,0001.63
2024-04-03 08:55:00,SystemResetWarning,0830.7,5.01,000.00,022.4,021.6,000.0,031.0,024.2,14.8,0000.0,0005.12,0002.30,0001.63
2024-04-03 08:56:00,SystemResetWarning,0830.7,5.00,000.00,022.4,021.6,000.0,031.0,024.2,15.1,0000.0,0005.21,0002.32,0001.61
2024-04-03 08:57:00,SystemResetWarning,0830.7,5.00,000.00,022.4,021.6,000.0,031.0,024.2,15.2,0000.0,0005.14,0002.29,0001.61
2024-04-03 08:58:00,SystemResetWarning,0830.7,5.00,000.00,022.4,021.6,000.0,031.0,024.2,15.2,0000.0,0005.11,0002.28,0001.62
2024-04-03 08:59:00,SystemResetWarning,0830.7,5.00,000.00,022.4,021.6,000.0,031.0,024.2,15.3,0000.0,0005.02,0002.26,0001.63
